Theta_e
313 313 313 313 313 313 313 313 313 313 311 311 313 313 312 312 314 314 315 315 320 321 324 322 319 319 314 305 303 318 324 323 319 317 310 304 300 300 298 298 300 297 301 304 304 305 304
312 312 312 312 312 312 312 312 313 313 312 310 313 313 312 311 311 315 315 316 317 321 323 320 319 318 309 298 315 313 316 318 316 315 308 303 301 301 298 298 296 301 302 302 303 301 302
312 312 311 311 311 311 311 311 312 312 312 310 311 312 312 311 311 313 314 315 318 320 322 320 320 315 306 303 315 315 314 315 319 314 308 306 304 299 299 298 301 302 298 298 299 300 299
311 311 310 310 310 312 311 311 311 311 312 311 311 311 312 311 311 313 314 315 317 320 322 321 319 312 303 315 316 314 314 310 317 317 313 309 308 304 301 299 298 294 293 290 296 300 300
310 309 309 310 311 311 311 311 311 311 311 312 311 312 311 311 311 312 313 314 316 320 321 319 311 307 300 314 310 314 312 306 309 313 313 311 306 300 299 292 288 289 285 288 293 298 297
308 308 309 310 311 311 311 311 311 311 312 311 311 312 311 311 311 312 314 314 316 314 318 312 310 301 303 303 310 311 311 308 306 308 306 305 300 295 292 288 285 285 285 288 290 294 296
308 308 309 310 310 310 310 310 310 311 311 312 311 312 311 311 311 311 312 311 303 302 304 300 299 299 300 306 311 308 310 308 309 303 294 299 293 286 290 291 291 290 287 286 288 293 294
307 307 307 309 310 310 310 310 310 311 311 312 311 311 311 311 311 311 310 300 303 305 295 302 302 301 304 306 301 304 311 303 301 293 296 292 291 293 295 295 292 290 287 285 289 293 290
307 307 306 308 309 309 309 310 310 311 311 312 311 311 311 311 311 309 305 303 310 308 294 296 301 299 300 303 298 300 307 304 298 293 293 289 292 295 294 291 290 287 287 285 287 290 289
307 306 306 307 308 309 310 311 311 310 311 311 311 311 311 311 304 306 303 309 310 307 288 290 294 300 300 301 294 305 308 303 298 293 293 292 293 294 292 290 290 286 290 290 289 284 281
307 306 307 308 308 310 310 311 311 311 311 311 311 310 311 310 304 301 306 309 308 303 278 291 293 306 301 296 296 297 308 303 294 294 293 288 290 290 289 290 292 289 292 289 287 285 281
307 306 306 307 309 309 310 312 311 311 311 311 310 310 311 305 305 308 309 307 302 285 277 287 295 294 292 295 296 297 300 303 300 294 294 292 295 293 291 292 292 292 290 288 286 284 276
307 306 306 307 309 309 311 311 311 311 311 310 310 310 307 307 299 308 307 300 283 278 287 286 289 293 292 291 292 292 292 292 288 284 284 289 289 293 294 290 292 289 285 274 273 272 275
307 306 306 307 308 307 310 311 310 311 310 310 310 308 306 306 308 307 301 288 277 283 285 291 293 292 289 292 291 290 289 288 292 289 285 281 279 290 293 291 287 285 285 277 273 273 275
305 305 306 307 307 307 308 309 310 310 310 310 308 299 301 306 307 304 291 280 280 285 289 290 291 287 287 291 291 289 288 288 291 290 284 281 283 291 292 292 291 287 283 286 279 272 274
305 305 306 307 307 308 307 309 309 309 309 308 298 295 298 306 305 297 286 282 284 290 291 290 285 289 285 288 288 287 287 291 290 292 291 286 281 288 290 292 292 288 289 280 276 268 269
305 304 306 306 307 308 307 308 309 309 308 305 295 286 298 305 299 289 279 281 286 292 292 286 285 285 289 288 288 287 286 289 292 291 290 289 286 284 289 286 284 285 282 282 282 277 273
304 304 306 306 306 308 307 308 309 308 306 298 288 279 298 301 284 285 283 285 291 289 292 288 287 287 289 290 288 287 286 288 295 292 287 290 287 282 283 289 290 288 285 285 278 275 276
303 304 306 305 306 307 308 308 308 306 303 291 286 285 297 295 275 279 283 287 291 289 289 288 287 289 290 287 285 288 289 294 293 292 289 291 284 279 278 283 286 285 286 285 283 281 278
303 304 305 305 305 305 307 308 306 305 303 291 282 275 282 286 286 279 279 281 283 291 289 291 289 291 288 286 288 288 289 293 294 293 295 294 285 281 278 280 285 284 286 286 284 275 278
303 303 304 304 305 305 306 307 305 306 303 291 283 278 276 279 278 283 283 283 283 282 289 290 288 289 286 283 284 286 290 291 293 295 292 289 280 283 283 283 285 284 285 286 283 283 280
302 303 303 303 303 304 304 306 305 305 303 288 281 281 284 279 282 281 282 279 283 285 287 285 285 288 289 285 285 284 287 291 288 292 290 290 280 282 277 283 284 282 284 286 286 286 284
301 301 302 303 302 303 304 306 306 304 301 288 291 287 283 278 277 277 275 282 284 288 288 289 288 288 287 290 293 294 293 294 292 290 289 287 281 275 271 280 281 275 280 284 285 287 287
300 301 300 302 302 302 303 303 304 304 300 294 292 289 282 272 274 275 281 284 285 286 285 288 289 288 291 297 295 293 292 292 291 292 294 287 283 280 273 275 271 281 284 288 287 287 289
301 300 300 300 301 302 301 301 301 302 303 297 296 293 288 281 280 279 280 282 283 285 286 287 289 291 295 291 284 281 281 281 285 288 292 292 285 278 275 269 277 281 283 283 284 285 290
302 301 301 300 299 300 301 301 300 300 302 298 294 297 292 286 280 284 279 283 277 274 278 285 289 292 292 287 280 274 274 277 280 284 290 291 290 282 267 270 270 280 283 287 287 280 289
300 301 301 300 300 300 300 301 301 301 302 295 293 298 293 285 284 286 284 279 283 280 277 283 284 286 289 282 279 275 274 281 279 281 282 284 283 281 279 269 276 282 283 286 278 282 282
299 300 301 301 300 300 300 300 300 301 300 299 294 295 293 286 284 288 289 288 286 282 278 281 283 284 285 281 277 277 274 281 280 281 283 283 282 280 275 272 273 284 284 282 285 282 281
298 299 300 301 301 300 300 300 300 299 300 296 288 292 294 290 287 290 288 289 289 289 285 284 282 282 289 282 283 280 280 281 277 278 285 282 285 281 282 281 286 284 285 286 285 283 281
Wind_Speed
17 16 16 17 17 18 19 20 20 18 17 19 16 14 11 12 12 9 8 9 17 22 23 24 20 9 9 7 3 2 3 10 6 7 5 4 3 4 5 4 4 5 3 3 4 5 5
15 16 17 18 19 19 19 19 20 21 16 17 15 14 12 14 12 10 8 15 14 20 21 24 24 20 8 2 4 9 6 5 6 6 4 4 4 3 4 4 2 4 6 5 4 3 4
16 17 18 18 19 20 20 19 21 19 18 14 15 15 14 13 13 12 11 14 19 20 27 25 21 10 4 7 3 10 11 5 8 6 3 3 3 1 3 6 2 6 7 3 2 2 3
17 19 20 21 21 21 19 20 20 20 18 13 12 13 15 11 11 12 11 17 11 14 18 18 14 7 6 3 5 5 9 6 6 7 7 7 1 2 2 3 6 5 6 5 1 3 1
19 20 21 23 23 22 23 21 21 19 17 14 11 9 12 10 9 12 9 13 13 15 16 24 7 6 7 6 6 5 6 4 4 11 4 5 3 3 3 7 5 3 5 3 2 4 3
18 20 21 23 23 24 22 21 21 18 16 12 10 9 10 9 7 10 12 11 8 3 13 11 4 6 5 8 6 3 0 3 1 7 7 2 4 3 3 4 11 7 5 3 6 6 2
19 20 22 24 25 24 24 22 21 18 15 11 10 9 11 6 7 7 7 1 5 4 3 4 10 1 10 10 4 3 2 1 1 3 7 4 4 7 7 5 5 7 5 5 2 1 4
19 21 22 24 26 25 25 23 21 19 15 11 9 8 9 6 7 5 1 1 4 2 11 8 3 8 8 6 5 0 1 3 1 4 6 6 15 6 6 5 7 7 7 3 3 2 2
19 21 22 25 26 26 25 24 22 18 15 10 7 4 8 4 7 2 2 3 4 3 6 5 3 6 5 2 3 6 8 4 3 3 4 7 3 8 7 4 5 2 7 5 6 3 4
19 21 22 25 27 27 25 25 21 16 12 8 7 4 6 1 2 2 2 2 4 3 5 5 3 3 4 5 6 3 2 3 1 4 6 2 3 6 6 6 6 5 4 7 10 6 4
19 21 22 24 26 27 25 25 18 13 11 9 8 3 2 3 1 3 2 2 5 1 6 10 4 5 4 3 11 3 2 0 11 6 3 2 1 5 4 5 6 3 6 6 4 5 4
18 21 23 24 27 26 27 19 8 13 13 11 8 3 5 2 1 2 5 2 3 3 4 6 7 10 10 3 5 9 5 2 3 4 6 3 4 3 2 5 6 11 10 10 6 3 2
19 21 23 25 26 25 23 8 13 17 15 12 6 6 3 1 1 3 3 4 2 1 2 7 6 12 12 8 7 8 10 9 8 8 5 2 6 5 1 10 6 6 7 4 4 3 7
19 20 22 24 24 22 20 14 16 17 15 11 9 8 9 4 4 4 2 2 2 1 2 1 6 15 6 8 6 13 11 9 9 3 6 7 2 4 3 3 9 4 7 8 8 6 3
18 19 21 22 21 15 16 13 14 14 13 13 8 3 4 4 4 4 5 1 2 3 1 3 14 8 4 6 5 10 14 9 11 7 7 5 2 2 3 1 4 5 4 5 8 3 3
17 16 18 19 20 14 9 8 9 11 12 6 3 4 4 7 6 4 4 2 3 3 4 3 3 3 6 13 7 10 16 7 5 6 3 6 6 2 0 1 3 3 8 4 4 5 4
14 14 16 17 18 14 5 4 8 10 7 5 5 5 4 8 3 5 3 3 4 8 6 3 1 4 3 7 6 9 18 2 9 6 3 4 4 2 4 4 6 2 2 4 5 5 6
11 12 13 14 17 15 3 4 10 7 5 11 3 4 4 3 5 1 1 0 3 4 5 5 3 5 3 7 5 5 14 5 17 9 8 3 5 4 3 1 2 2 5 5 5 5 2
9 11 12 13 15 16 7 3 9 10 9 4 4 1 4 3 3 2 3 3 2 1 3 3 6 4 5 4 5 3 7 6 9 11 9 5 1 6 4 7 3 5 4 4 4 3 7
8 10 11 12 13 14 12 4 8 10 7 6 4 3 4 4 2 4 0 2 3 3 3 2 1 3 4 4 6 4 3 3 10 6 8 7 4 7 12 4 9 7 10 7 5 4 5
7 8 9 10 11 12 12 6 7 8 9 6 3 1 4 1 2 1 1 0 1 1 2 1 2 1 3 1 4 2 1 4 4 8 4 5 5 4 1 4 6 7 15 20 16 11 10
5 6 7 9 10 10 10 3 6 7 8 5 4 4 1 1 0 4 2 2 4 2 4 2 3 5 4 4 6 1 2 3 5 4 5 2 3 3 2 3 2 3 11 17 21 13 10
2 3 5 7 9 10 10 10 5 6 6 3 2 1 4 2 1 4 5 5 6 5 3 2 3 3 5 2 5 8 4 1 5 5 12 6 6 3 4 3 3 7 10 13 9 14 16
1 0 2 4 5 8 9 8 2 2 6 3 2 3 3 4 2 4 2 5 5 6 2 2 2 2 2 8 7 6 6 3 3 7 4 6 6 3 3 2 6 4 2 11 17 10 19
5 3 2 1 3 4 5 6 4 2 5 2 2 2 2 1 3 3 4 4 2 5 2 3 4 3 2 4 4 5 3 3 2 4 6 5 5 3 5 4 5 4 6 8 11 15 16
4 6 5 3 1 1 2 2 3 2 1 2 1 2 1 0 6 2 2 5 4 2 4 4 3 3 4 3 3 4 4 4 2 2 2 8 7 3 3 6 10 6 2 4 5 8 8
4 5 8 6 4 2 3 0 1 2 1 4 2 3 2 1 4 5 3 4 4 1 2 2 3 1 1 2 2 3 4 2 4 5 5 4 4 9 4 3 8 6 3 2 7 7 3
7 5 5 9 8 5 4 4 2 1 1 3 2 2 4 2 4 5 4 5 1 1 4 3 3 1 2 5 4 4 3 5 3 3 4 8 6 4 4 1 9 7 4 8 5 1 1
10 9 6 8 9 8 6 5 4 2 3 6 1 2 1 2 4 2 4 3 4 6 5 3 2 3 4 3 3 2 2 2 3 4 2 3 5 4 8 8 3 7 4 5 5 3 1
Wind_Direction
320 315 313 315 315 309 309 312 309 303 311 309 324 306 311 301 287 297 312 276 232 198 164 132 118 99 63 30 292 273 230 151 194 259 227 222 217 181 174 162 128 99 158 82 85 66 50
325 331 330 323 319 315 315 316 310 304 299 306 318 320 302 317 305 295 307 293 296 213 160 134 121 104 76 297 308 352 295 165 206 226 253 200 230 231 119 126 114 133 107 121 52 60 32
335 334 331 326 321 318 315 308 304 303 296 299 309 317 314 311 312 325 305 298 289 228 149 142 124 93 134 199 263 329 319 265 185 177 303 264 264 239 132 112 146 138 99 77 61 349 105
337 334 331 325 322 318 313 310 306 304 300 285 296 313 322 307 313 318 309 305 312 209 177 150 133 97 218 111 328 296 272 280 160 139 278 261 238 124 86 113 50 83 75 140 228 165 326
333 330 328 322 320 318 312 309 303 299 298 285 289 303 316 303 314 329 296 300 314 208 192 135 113 170 195 133 177 230 216 253 307 124 294 275 72 132 73 100 63 25 164 161 160 229 126
333 329 323 323 324 321 314 310 304 294 293 292 281 299 306 287 306 311 294 292 251 98 173 89 71 117 182 183 145 198 308 221 331 121 119 314 44 123 73 116 181 169 161 175 165 211 152
337 328 326 329 326 324 318 313 305 295 284 279 260 282 291 273 285 304 296 132 122 115 30 160 154 25 139 103 113 152 310 107 177 105 139 222 187 192 178 171 152 143 132 126 34 323 133
338 329 333 329 328 324 317 312 305 295 282 263 237 268 288 272 292 316 178 268 315 116 71 32 127 88 99 120 131 47 182 70 99 145 126 105 223 196 168 160 130 136 125 99 41 7 107
337 332 335 331 328 322 313 306 300 287 273 255 214 242 291 302 315 304 184 238 322 295 76 34 4 88 110 52 92 141 127 128 34 153 147 163 203 139 142 164 136 114 136 169 152 130 33
338 336 337 332 328 319 311 302 290 271 249 229 179 222 286 337 21 113 280 206 334 326 101 142 235 139 119 133 55 102 139 101 29 161 138 186 347 150 153 180 135 154 156 139 133 120 191
341 341 338 334 329 320 316 301 281 239 206 185 155 207 239 170 229 217 177 123 319 267 145 165 146 152 127 55 141 178 128 100 144 174 79 161 20 153 150 181 144 167 121 115 95 94 108
346 345 342 340 335 329 322 309 244 184 167 153 142 181 114 340 262 59 77 48 31 91 147 159 136 157 139 214 173 136 157 97 55 71 44 352 303 335 128 59 133 145 88 51 51 56 317
351 349 345 346 341 344 347 41 130 139 139 128 135 136 67 138 130 80 58 24 64 171 342 143 152 152 152 154 128 152 177 162 149 136 140 14 321 311 277 87 1 120 99 26 357 1 229
353 352 348 349 348 357 15 73 107 118 118 120 118 88 40 62 58 5 82 31 108 224 129 263 138 150 159 133 154 162 174 163 230 108 124 151 200 202 325 137 168 160 149 152 184 195 222
350 353 351 352 352 357 26 69 89 102 110 114 102 12 39 5 37 11 29 67 348 29 73 169 133 151 136 153 131 161 190 185 187 185 135 147 136 92 27 356 153 204 148 139 104 22 60
348 355 356 353 352 350 18 63 94 114 119 111 82 65 16 348 348 58 58 45 336 335 352 337 135 207 157 161 151 163 183 221 189 194 178 202 104 68 16 154 0 159 155 83 0 134 243
355 358 1 359 354 353 14 110 120 124 95 79 55 58 327 335 36 46 89 317 332 39 32 29 91 125 141 143 153 164 170 161 198 172 135 149 103 178 122 207 171 116 161 89 120 151 175
358 1 8 13 7 5 29 148 138 105 67 49 76 54 316 357 55 44 57 116 291 340 57 34 84 43 133 146 143 152 185 175 200 145 155 177 105 121 173 250 234 185 193 150 151 214 218
10 10 33 30 21 13 18 160 127 54 60 109 77 115 335 41 109 343 317 324 302 246 34 18 18 28 17 57 143 166 176 207 156 165 154 187 155 110 33 343 291 201 183 154 127 82 196
19 16 27 36 26 21 14 146 89 63 82 85 82 66 335 45 174 127 176 325 350 19 74 12 127 25 51 41 17 183 159 114 186 155 144 112 157 173 193 181 150 193 198 197 164 161 152
22 20 23 41 32 24 23 136 99 64 78 89 47 264 187 152 286 182 251 223 136 336 24 35 45 164 168 2 9 54 112 111 69 143 126 140 157 170 222 223 164 172 191 202 208 200 195
23 31 27 37 40 28 21 50 133 75 72 78 126 133 25 167 289 126 197 272 199 197 160 234 171 217 195 190 151 261 277 125 178 212 152 172 178 119 350 53 101 238 215 209 213 217 245
29 23 26 42 39 43 47 48 143 70 69 99 91 48 111 232 71 101 215 222 203 170 250 231 213 143 247 197 143 126 126 100 341 210 193 149 128 88 240 351 72 301 210 201 209 210 205
198 338 14 44 37 43 60 48 85 82 68 119 165 111 84 277 114 204 210 193 251 219 189 248 185 258 327 105 83 60 42 56 346 325 178 156 120 88 141 45 249 255 323 196 202 213 223
219 205 211 72 47 31 44 69 59 42 138 103 138 108 122 266 225 301 251 240 349 305 258 212 208 223 285 60 66 61 349 0 249 243 181 178 116 122 158 207 300 291 203 165 174 244 221
307 216 204 197 180 355 6 45 67 223 166 104 181 124 137 115 231 197 208 193 199 187 349 292 286 295 65 81 83 153 194 189 271 304 192 161 186 141 126 164 211 238 236 157 117 290 234
302 306 217 206 211 223 263 243 43 26 195 136 215 189 124 195 229 146 211 191 180 99 134 236 281 53 62 108 146 166 235 171 194 204 171 163 170 196 164 233 284 243 220 173 111 234 324
249 288 270 217 208 212 229 238 190 166 40 159 218 197 148 218 270 190 207 196 324 112 145 234 58 330 103 183 164 206 163 213 164 189 172 191 177 169 109 118 267 158 78 181 205 230 230
246 254 277 244 213 202 216 222 216 145 176 111 254 335 95 208 256 289 264 264 217 197 157 201 205 180 171 156 211 148 173 160 195 207 91 231 212 192 184 202 243 225 186 179 167 171 119